Location: Ethel Rock
(53.4667°N, 4.5667°W)
Time: 05:23:28
(UTC+00:00)

Cosmos 1400 Rocket - Pass Details

Date: 24 October 2020
Orbit: 521 x 568 km, 81.2° (Epoch: 25 November)

Event Time Altitude Azimuth Distance (km) Brightness Sun altitude
Rises 05:12:09 0° 349° (NNW) 2,733 6.3 -17.0°
Reaches altitude 10° 05:14:23 10° 353° (N) 1,826 5.4 -16.7°
Maximum altitude 05:18:21 56° 73° (ENE) 649 3.5 -16.1°
Drops below altitude 10° 05:22:12 10° 152° (SSE) 1,784 5.8 -15.5°
Sets 05:24:22 0° 157° (SSE) 2,662 6.6 -15.2°
